Location: Newark
(0.5300°S, 127.4800°E)
Time: 16:18:44
(UTC+00:00)

Vanguard 3 - Pass Details

Date: 21 September 2019
Orbit: 508 x 3262 km, 33.3° (Epoch: 21 October)

Event Time Altitude Azimuth Distance (km) Brightness Sun altitude
Rises 06:13:38 0° 313° (NW) 7,067 12.4 47.4°
Reaches altitude 10° 06:19:02 10° 318° (NW) 5,820 12.1 46.1°
Maximum altitude 06:35:06 52° 30° (NNE) 2,511 9.9 42.0°
Drops below altitude 10° 06:44:35 10° 104° (ESE) 3,584 10.1 39.7°
Sets 06:47:04 0° 109° (ESE) 4,264 10.4 39.1°
